| time (UTC) | temp F | wind direction | speed knots | gust knots | rain 1hr in | rain 24hr in | rain mn in | humidity % | barometer mb |
| 20260505014213 | 79 | 70 | 4.3 | 0.0 | 0.00 | 0.00 | 0.00 | 78 | 1015.0 |
| 20260505013211 | 79 | 70 | 4.3 | 0.0 | 0.00 | 0.00 | 0.00 | 78 | 1015.0 |
| 20260505012210 | 79 | 70 | 4.3 | 0.0 | 0.00 | 0.00 | 0.00 | 78 | 1015.0 |
| 20260505011207 | 79 | 70 | 4.3 | 0.0 | 0.00 | 0.00 | 0.00 | 78 | 1015.0 |
| 20260505010205 | 81 | 70 | 7.0 | 0.0 | 0.00 | 0.00 | 0.00 | 74 | 1015.0 |
| 20260505005202 | 81 | 70 | 7.0 | 0.0 | 0.00 | 0.00 | 0.00 | 74 | 1015.0 |
| 20260505004201 | 81 | 70 | 7.0 | 0.0 | 0.00 | 0.00 | 0.00 | 74 | 1015.0 |
| 20260505003159 | 81 | 70 | 7.0 | 0.0 | 0.00 | 0.00 | 0.00 | 74 | 1015.0 |
| 20260505002156 | 81 | 70 | 7.0 | 0.0 | 0.00 | 0.00 | 0.00 | 74 | 1014.0 |
| 20260505001155 | 81 | 70 | 7.0 | 0.0 | 0.00 | 0.00 | 0.00 | 74 | 1014.0 |
| 20260505000153 | 86 | 90 | 5.2 | 0.0 | 0.00 | 0.00 | 0.00 | 62 | 1014.0 |
| 20260504235152 | 86 | 90 | 5.2 | 0.0 | 0.00 | 0.00 | 0.00 | 62 | 1014.0 |
| 20260504234151 | 86 | 90 | 5.2 | 0.0 | 0.00 | 0.00 | 0.00 | 62 | 1014.0 |
| 20260504233149 | 86 | 90 | 5.2 | 0.0 | 0.00 | 0.00 | 0.00 | 62 | 1014.0 |
| 20260504232148 | 86 | 90 | 5.2 | 0.0 | 0.00 | 0.00 | 0.00 | 62 | 1013.0 |
| 20260504231145 | 86 | 90 | 5.2 | 0.0 | 0.00 | 0.00 | 0.00 | 62 | 1013.0 |
| 20260504230144 | 86 | 80 | 7.8 | 0.0 | 0.00 | 0.00 | 0.00 | 62 | 1013.0 |
| 20260504225142 | 86 | 80 | 7.8 | 0.0 | 0.00 | 0.00 | 0.00 | 62 | 1013.0 |
| 20260504224140 | 86 | 80 | 7.8 | 0.0 | 0.00 | 0.00 | 0.00 | 62 | 1013.0 |
| 20260504223137 | 86 | 90 | 9.6 | 0.0 | 0.00 | 0.00 | 0.00 | 60 | 1013.0 |
| 20260504222136 | 86 | 90 | 9.6 | 0.0 | 0.00 | 0.00 | 0.00 | 60 | 1013.0 |
| 20260504221135 | 86 | 90 | 9.6 | 0.0 | 0.00 | 0.00 | 0.00 | 59 | 1013.0 |
| 20260504220133 | 87 | 90 | 9.6 | 0.0 | 0.00 | 0.00 | 0.00 | 57 | 1013.0 |
| 20260504215132 | 87 | 90 | 9.6 | 0.0 | 0.00 | 0.00 | 0.00 | 57 | 1013.0 |
| 20260504214131 | 87 | 90 | 9.6 | 0.0 | 0.00 | 0.00 | 0.00 | 57 | 1013.0 |
| 20260504213129 | 87 | 90 | 9.6 | 0.0 | 0.00 | 0.00 | 0.00 | 57 | 1013.0 |
| 20260504212127 | 87 | 90 | 9.6 | 0.0 | 0.00 | 0.00 | 0.00 | 57 | 1013.0 |
| 20260504211114 | 87 | 90 | 9.6 | 0.0 | 0.00 | 0.00 | 0.00 | 56 | 1013.0 |
| 20260504210113 | 87 | 90 | 9.6 | 0.0 | 0.00 | 0.00 | 0.00 | 55 | 1013.0 |
| 20260504205106 | 87 | 90 | 10.4 | 0.0 | 0.00 | 0.00 | 0.00 | 53 | 1013.0 |
| 20260504204105 | 87 | 90 | 10.4 | 0.0 | 0.00 | 0.00 | 0.00 | 53 | 1013.0 |
| 20260504203103 | 87 | 90 | 10.4 | 0.0 | 0.00 | 0.00 | 0.00 | 53 | 1013.0 |
| 20260504202100 | 87 | 90 | 10.4 | 0.0 | 0.00 | 0.00 | 0.00 | 53 | 1013.0 |
| 20260504201059 | 87 | 90 | 10.4 | 0.0 | 0.00 | 0.00 | 0.00 | 53 | 1013.0 |
| 20260504200058 | 87 | 100 | 9.6 | 0.0 | 0.00 | 0.00 | 0.00 | 53 | 1013.0 |
| 20260504195056 | 87 | 100 | 9.6 | 0.0 | 0.00 | 0.00 | 0.00 | 53 | 1013.0 |
| 20260504194055 | 87 | 100 | 9.6 | 0.0 | 0.00 | 0.00 | 0.00 | 53 | 1013.0 |
| 20260504193053 | 87 | 100 | 9.6 | 0.0 | 0.00 | 0.00 | 0.00 | 53 | 1013.0 |
| 20260504192052 | 87 | 100 | 9.6 | 0.0 | 0.00 | 0.00 | 0.00 | 54 | 1013.0 |
| 20260504191051 | 86 | 100 | 9.6 | 0.0 | 0.00 | 0.00 | 0.00 | 55 | 1013.0 |
| 20260504190049 | 85 | 100 | 10.4 | 0.0 | 0.00 | 0.00 | 0.00 | 56 | 1013.0 |
| 20260504185048 | 85 | 100 | 10.4 | 0.0 | 0.00 | 0.00 | 0.00 | 56 | 1013.0 |
| 20260504184046 | 85 | 100 | 10.4 | 0.0 | 0.00 | 0.00 | 0.00 | 56 | 1013.0 |
| 20260504183044 | 85 | 100 | 10.4 | 0.0 | 0.00 | 0.00 | 0.00 | 56 | 1013.0 |
| 20260504182042 | 85 | 100 | 10.4 | 0.0 | 0.00 | 0.00 | 0.00 | 56 | 1014.0 |
| 20260504181040 | 85 | 100 | 10.4 | 0.0 | 0.00 | 0.00 | 0.00 | 56 | 1014.0 |
| 20260504180039 | 85 | 100 | 10.4 | 20.0 | 0.00 | 0.00 | 0.00 | 56 | 1014.0 |
| 20260504175038 | 85 | 100 | 10.4 | 20.0 | 0.00 | 0.00 | 0.00 | 56 | 1014.0 |
| 20260504174035 | 85 | 100 | 10.4 | 20.0 | 0.00 | 0.00 | 0.00 | 56 | 1014.0 |
| 20260504173034 | 85 | 100 | 10.4 | 20.0 | 0.00 | 0.00 | 0.00 | 57 | 1014.0 |
| 20260504172032 | 85 | 100 | 10.4 | 20.0 | 0.00 | 0.00 | 0.00 | 58 | 1015.0 |
| 20260504171031 | 85 | 100 | 10.4 | 20.0 | 0.00 | 0.00 | 0.00 | 60 | 1015.0 |
| 20260504151012 | 84 | 100 | 8.7 | 0.0 | 0.00 | 0.00 | 0.00 | 66 | 1016.0 |
| 20260504141001 | 79 | 110 | 9.6 | 0.0 | 0.00 | 0.00 | 0.00 | 80 | 1016.0 |
| 20260504081909 | 73 | 140 | 3.5 | 0.0 | 0.00 | 0.00 | 0.00 | 94 | 1015.0 |
| 20260504080908 | 73 | 140 | 3.5 | 0.0 | 0.00 | 0.00 | 0.00 | 94 | 1015.0 |
| 20260504045842 | 73 | 120 | 3.5 | 0.0 | 0.00 | 0.00 | 0.00 | 94 | 1016.0 |
| 20260504044841 | 74 | 120 | 3.5 | 0.0 | 0.00 | 0.00 | 0.00 | 94 | 1016.0 |
| 20260504043839 | 75 | 120 | 3.5 | 0.0 | 0.00 | 0.00 | 0.00 | 88 | 1016.0 |
| 20260504042838 | 75 | 120 | 3.5 | 0.0 | 0.00 | 0.00 | 0.00 | 88 | 1016.0 |
| 20260504041836 | 75 | 120 | 3.5 | 0.0 | 0.00 | 0.00 | 0.00 | 88 | 1016.0 |
| 20260504040834 | 75 | 100 | 3.5 | 0.0 | 0.00 | 0.00 | 0.00 | 88 | 1016.0 |
| 20260504035833 | 75 | 100 | 3.5 | 0.0 | 0.00 | 0.00 | 0.00 | 88 | 1016.0 |
| 20260504034831 | 75 | 100 | 3.5 | 0.0 | 0.00 | 0.00 | 0.00 | 88 | 1016.0 |
| 20260504033829 | 75 | 100 | 3.5 | 0.0 | 0.00 | 0.00 | 0.00 | 88 | 1016.0 |
| 20260504032828 | 75 | 100 | 3.5 | 0.0 | 0.00 | 0.00 | 0.00 | 88 | 1016.0 |
| 20260504031826 | 75 | 100 | 3.5 | 0.0 | 0.00 | 0.00 | 0.00 | 88 | 1016.0 |
| 20260504030825 | 75 | 100 | 3.5 | 0.0 | 0.00 | 0.00 | 0.00 | 88 | 1016.0 |
| 20260504025823 | 75 | 70 | 3.5 | 0.0 | 0.00 | 0.00 | 0.00 | 88 | 1016.0 |
| 20260504024822 | 75 | 70 | 3.5 | 0.0 | 0.00 | 0.00 | 0.00 | 88 | 1016.0 |
| 20260504023820 | 75 | 70 | 3.5 | 0.0 | 0.00 | 0.00 | 0.00 | 88 | 1016.0 |
| 20260504022819 | 75 | 70 | 3.5 | 0.0 | 0.00 | 0.00 | 0.00 | 88 | 1016.0 |
| 20260504021817 | 75 | 70 | 3.5 | 0.0 | 0.00 | 0.00 | 0.00 | 88 | 1016.0 |
| 20260504020816 | 75 | 70 | 3.5 | 0.0 | 0.00 | 0.00 | 0.00 | 88 | 1016.0 |
| 20260504015814 | 79 | 80 | 3.5 | 0.0 | 0.00 | 0.00 | 0.00 | 69 | 1016.0 |